| time (UTC) | temp F | wind direction | speed MPH | gust MPH | rain 1hr in | rain 24hr in | rain mn in | humidity % | barometer mb |
| 20260906041854 | 70 | 50 | 2.0 | 4.0 | 0.00 | 0.00 | 0.00 | 91 | 1016.7 |
| 20260906041354 | 70 | 13 | 2.0 | 5.0 | 0.00 | 0.00 | 0.00 | 91 | 1016.4 |
| 20260906040855 | 70 | 100 | 3.0 | 5.0 | 0.00 | 0.00 | 0.00 | 91 | 1016.4 |
| 20260906040611 | 70 | 0 | 2.0 | 7.0 | 0.00 | 0.00 | 0.00 | 91 | 1016.0 |
| 20260906035852 | 70 | 66 | 4.0 | 7.0 | 0.00 | 0.00 | 0.00 | 91 | 1016.4 |
| 20260906035352 | 70 | 106 | 3.0 | 7.0 | 0.00 | 0.00 | 0.00 | 91 | 1016.0 |
| 20260906034850 | 70 | 77 | 4.0 | 6.0 | 0.00 | 0.00 | 0.00 | 91 | 1016.4 |
| 20260906034351 | 70 | 66 | 4.0 | 6.0 | 0.00 | 0.00 | 0.00 | 91 | 1016.0 |
| 20260906034059 | 70 | 80 | 3.0 | 5.0 | 0.00 | 0.00 | 0.00 | 90 | 1016.0 |
| 20260906033953 | 70 | 48 | 2.0 | 5.0 | 0.00 | 0.00 | 0.00 | 90 | 1016.0 |
| 20260906032849 | 70 | 78 | 4.0 | 5.0 | 0.00 | 0.00 | 0.00 | 90 | 1016.0 |
| 20260906032400 | 70 | 87 | 3.0 | 6.0 | 0.00 | 0.00 | 0.00 | 90 | 1016.0 |
| 20260906031847 | 70 | 70 | 3.0 | 6.0 | 0.00 | 0.00 | 0.00 | 90 | 1016.0 |
| 20260906031348 | 70 | 91 | 2.0 | 4.0 | 0.00 | 0.00 | 0.00 | 90 | 1016.0 |
| 20260906030847 | 70 | 89 | 2.0 | 5.0 | 0.00 | 0.00 | 0.00 | 90 | 1016.0 |
| 20260906030345 | 70 | 82 | 2.0 | 6.0 | 0.00 | 0.00 | 0.00 | 90 | 1015.7 |
| 20260906030111 | 70 | 89 | 4.0 | 6.0 | 0.00 | 0.00 | 0.00 | 90 | 1015.7 |
| 20260906025400 | 71 | 80 | 3.0 | 5.0 | 0.00 | 0.00 | 0.00 | 89 | 1015.4 |
| 20260906025109 | 71 | 82 | 3.0 | 5.0 | 0.00 | 0.00 | 0.00 | 89 | 1016.0 |
| 20260906024601 | 71 | 79 | 2.0 | 6.0 | 0.00 | 0.00 | 0.00 | 89 | 1015.7 |
| 20260906023845 | 71 | 92 | 4.0 | 6.0 | 0.00 | 0.00 | 0.00 | 89 | 1015.7 |
| 20260906023345 | 71 | 89 | 2.0 | 6.0 | 0.00 | 0.00 | 0.00 | 90 | 1015.7 |
| 20260906022841 | 71 | 59 | 2.0 | 6.0 | 0.00 | 0.00 | 0.00 | 90 | 1015.7 |
| 20260906022342 | 71 | 88 | 2.0 | 9.0 | 0.00 | 0.00 | 0.00 | 89 | 1015.7 |
| 20260906021840 | 71 | 78 | 7.0 | 9.0 | 0.00 | 0.00 | 0.00 | 89 | 1015.7 |
| 20260906021341 | 71 | 94 | 1.0 | 6.0 | 0.00 | 0.00 | 0.00 | 89 | 1015.7 |
| 20260906020840 | 71 | 69 | 3.0 | 10.0 | 0.00 | 0.00 | 0.00 | 89 | 1015.7 |
| 20260906020339 | 71 | 76 | 4.0 | 11.0 | 0.00 | 0.00 | 0.00 | 89 | 1015.7 |
| 20260906020101 | 71 | 81 | 3.0 | 11.0 | 0.00 | 0.00 | 0.00 | 88 | 1015.7 |
| 20260906015340 | 71 | 80 | 6.0 | 8.0 | 0.00 | 0.00 | 0.00 | 88 | 1015.7 |
| 20260906014841 | 71 | 25 | 3.0 | 8.0 | 0.00 | 0.00 | 0.00 | 88 | 1015.7 |
| 20260906014338 | 71 | 4 | 1.0 | 6.0 | 0.00 | 0.00 | 0.00 | 88 | 1015.7 |
| 20260906014055 | 71 | 84 | 3.0 | 6.0 | 0.00 | 0.00 | 0.00 | 89 | 1016.0 |
| 20260906013337 | 71 | 40 | 2.0 | 7.0 | 0.00 | 0.00 | 0.00 | 88 | 1015.7 |
| 20260906012836 | 71 | 93 | 2.0 | 7.0 | 0.00 | 0.00 | 0.00 | 88 | 1016.0 |
| 20260906012338 | 71 | 66 | 2.0 | 7.0 | 0.00 | 0.00 | 0.00 | 88 | 1016.0 |
| 20260906011835 | 71 | 106 | 4.0 | 6.0 | 0.00 | 0.00 | 0.00 | 88 | 1015.7 |
| 20260906011336 | 71 | 70 | 3.0 | 6.0 | 0.00 | 0.00 | 0.00 | 88 | 1016.0 |
| 20260906011106 | 71 | 68 | 2.0 | 7.0 | 0.00 | 0.00 | 0.00 | 89 | 1015.7 |
| 20260906010334 | 71 | 83 | 5.0 | 7.0 | 0.00 | 0.00 | 0.00 | 89 | 1015.7 |
| 20260906005833 | 71 | 79 | 3.0 | 6.0 | 0.00 | 0.00 | 0.00 | 89 | 1015.7 |
| 20260906005334 | 71 | 53 | 2.0 | 7.0 | 0.00 | 0.00 | 0.00 | 89 | 1015.7 |
| 20260906005055 | 71 | 118 | 3.0 | 7.0 | 0.00 | 0.00 | 0.00 | 89 | 1015.7 |
| 20260906004331 | 72 | 86 | 4.0 | 10.0 | 0.00 | 0.00 | 0.00 | 89 | 1015.7 |
| 20260906003832 | 72 | 47 | 3.0 | 10.0 | 0.00 | 0.00 | 0.00 | 88 | 1015.7 |
| 20260906003338 | 72 | 26 | 5.0 | 10.0 | 0.00 | 0.00 | 0.00 | 87 | 1015.7 |
| 20260906002831 | 73 | 75 | 3.0 | 9.0 | 0.00 | 0.00 | 0.00 | 87 | 1015.7 |
| 20260906002330 | 73 | 55 | 0.0 | 12.0 | 0.00 | 0.00 | 0.00 | 87 | 1015.4 |
| 20260906001829 | 73 | 13 | 3.0 | 12.0 | 0.00 | 0.00 | 0.00 | 86 | 1015.4 |
| 20260906001329 | 74 | 68 | 6.0 | 9.0 | 0.00 | 0.00 | 0.00 | 86 | 1015.4 |
| 20260906000828 | 74 | 86 | 6.0 | 8.0 | 0.00 | 0.00 | 0.00 | 85 | 1015.0 |
| 20260906000327 | 74 | 81 | 4.0 | 5.0 | 0.00 | 0.00 | 0.00 | 86 | 1015.4 |
| 20260905235827 | 75 | 126 | 0.0 | 6.0 | 0.00 | 0.00 | 0.00 | 85 | 1015.0 |
| 20260905235554 | 75 | 352 | 2.0 | 6.0 | 0.00 | 0.00 | 0.00 | 84 | 1015.0 |
| 20260905234825 | 75 | 352 | 2.0 | 7.0 | 0.00 | 0.00 | 0.00 | 83 | 1015.0 |
| 20260905234325 | 75 | 50 | 4.0 | 9.0 | 0.00 | 0.00 | 0.00 | 83 | 1014.7 |
| 20260905233824 | 76 | 45 | 2.0 | 9.0 | 0.00 | 0.00 | 0.00 | 84 | 1015.0 |
| 20260905233324 | 76 | 70 | 2.0 | 7.0 | 0.00 | 0.00 | 0.00 | 83 | 1014.7 |
| 20260905232826 | 76 | 346 | 4.0 | 7.0 | 0.00 | 0.00 | 0.00 | 83 | 1015.0 |
| 20260905232323 | 76 | 45 | 1.0 | 6.0 | 0.00 | 0.00 | 0.00 | 83 | 1015.0 |
| 20260905231824 | 76 | 64 | 3.0 | 7.0 | 0.00 | 0.00 | 0.00 | 83 | 1015.0 |
| 20260905231323 | 77 | 85 | 6.0 | 7.0 | 0.00 | 0.00 | 0.00 | 83 | 1014.7 |
| 20260905230824 | 77 | 98 | 2.0 | 8.0 | 0.00 | 0.00 | 0.00 | 82 | 1014.7 |
| 20260905230333 | 78 | 99 | 3.0 | 8.0 | 0.00 | 0.00 | 0.00 | 81 | 1014.7 |
| 20260905225820 | 78 | 47 | 2.0 | 7.0 | 0.00 | 0.00 | 0.00 | 80 | 1014.3 |
| 20260905225323 | 78 | 52 | 5.0 | 7.0 | 0.00 | 0.00 | 0.00 | 80 | 1014.3 |
| 20260905224821 | 79 | 59 | 2.0 | 6.0 | 0.00 | 0.00 | 0.00 | 80 | 1014.3 |
| 20260905224321 | 79 | 37 | 4.0 | 6.0 | 0.00 | 0.00 | 0.00 | 79 | 1014.3 |
| 20260905223819 | 80 | 31 | 4.0 | 6.0 | 0.00 | 0.00 | 0.00 | 77 | 1014.3 |
| 20260905223318 | 80 | 174 | 2.0 | 6.0 | 0.00 | 0.00 | 0.00 | 76 | 1014.3 |
| 20260905222820 | 80 | 18 | 0.0 | 7.0 | 0.00 | 0.00 | 0.00 | 75 | 1014.0 |
| 20260905222317 | 80 | 334 | 4.0 | 7.0 | 0.00 | 0.00 | 0.00 | 74 | 1014.0 |
| 20260905221818 | 80 | 73 | 4.0 | 6.0 | 0.00 | 0.00 | 0.00 | 75 | 1014.3 |
| 20260905221318 | 80 | 357 | 2.0 | 5.0 | 0.00 | 0.00 | 0.00 | 76 | 1014.3 |
| 20260905220817 | 80 | 62 | 3.0 | 10.0 | 0.00 | 0.00 | 0.00 | 76 | 1014.0 |
| 20260905220314 | 80 | 332 | 2.0 | 10.0 | 0.00 | 0.00 | 0.00 | 75 | 1014.3 |
| 20260905215814 | 80 | 88 | 3.0 | 8.0 | 0.00 | 0.00 | 0.00 | 74 | 1014.0 |
| 20260905215314 | 80 | 353 | 1.0 | 4.0 | 0.00 | 0.00 | 0.00 | 75 | 1014.0 |
| 20260905215035 | 80 | 32 | 1.0 | 5.0 | 0.00 | 0.00 | 0.00 | 76 | 1014.3 |
| 20260905214755 | 80 | 343 | 3.0 | 6.0 | 0.00 | 0.00 | 0.00 | 76 | 1014.3 |
| 20260905213813 | 80 | 340 | 4.0 | 4.0 | 0.00 | 0.00 | 0.00 | 75 | 1014.3 |
| 20260905213314 | 80 | 24 | 1.0 | 6.0 | 0.00 | 0.00 | 0.00 | 76 | 1014.3 |
| 20260905212812 | 80 | 72 | 4.0 | 6.0 | 0.00 | 0.00 | 0.00 | 76 | 1014.3 |
| 20260905212310 | 80 | 299 | 0.0 | 5.0 | 0.00 | 0.00 | 0.00 | 76 | 1014.0 |
| 20260905211812 | 80 | 25 | 2.0 | 5.0 | 0.00 | 0.00 | 0.00 | 76 | 1014.3 |
| 20260905211311 | 80 | 7 | 3.0 | 5.0 | 0.00 | 0.00 | 0.00 | 77 | 1014.0 |
| 20260905210810 | 80 | 18 | 1.0 | 6.0 | 0.00 | 0.00 | 0.00 | 77 | 1014.3 |
| 20260905210534 | 80 | 352 | 2.0 | 6.0 | 0.00 | 0.00 | 0.00 | 77 | 1014.3 |
| 20260905205808 | 80 | 3 | 2.0 | 7.0 | 0.00 | 0.00 | 0.00 | 78 | 1014.3 |
| 20260905205309 | 80 | 81 | 2.0 | 7.0 | 0.00 | 0.00 | 0.00 | 77 | 1014.3 |
| 20260905205026 | 80 | 62 | 6.0 | 6.0 | 0.00 | 0.00 | 0.00 | 79 | 1014.3 |
| 20260905204309 | 79 | 247 | 1.0 | 5.0 | 0.00 | 0.00 | 0.00 | 81 | 1014.3 |
| 20260905203806 | 79 | 20 | 4.0 | 5.0 | 0.00 | 0.00 | 0.00 | 81 | 1014.3 |
| 20260905203308 | 79 | 96 | 3.0 | 7.0 | 0.00 | 0.00 | 0.00 | 81 | 1014.7 |
| 20260905202806 | 79 | 318 | 3.0 | 7.0 | 0.00 | 0.00 | 0.00 | 81 | 1014.7 |
| 20260905202306 | 78 | 14 | 0.0 | 4.0 | 0.00 | 0.00 | 0.00 | 82 | 1014.7 |
| 20260905201819 | 78 | 18 | 1.0 | 4.0 | 0.00 | 0.00 | 0.00 | 83 | 1014.3 |
| 20260905201305 | 78 | 59 | 4.0 | 6.0 | 0.00 | 0.00 | 0.00 | 84 | 1014.7 |
| 20260905200803 | 77 | 105 | 2.0 | 6.0 | 0.00 | 0.00 | 0.00 | 83 | 1014.7 |
| 20260905200520 | 78 | 12 | 3.0 | 6.0 | 0.00 | 0.00 | 0.00 | 83 | 1014.7 |
| 20260905195804 | 78 | 25 | 6.0 | 6.0 | 0.00 | 0.00 | 0.00 | 85 | 1014.7 |
| 20260905195306 | 77 | 68 | 2.0 | 6.0 | 0.00 | 0.00 | 0.00 | 85 | 1014.7 |
| 20260905195020 | 77 | 12 | 2.0 | 6.0 | 0.00 | 0.00 | 0.00 | 85 | 1014.7 |
| 20260905194301 | 77 | 56 | 4.0 | 6.0 | 0.00 | 0.00 | 0.00 | 85 | 1014.7 |
| 20260905193801 | 77 | 51 | 1.0 | 5.0 | 0.00 | 0.00 | 0.00 | 85 | 1014.7 |
| 20260905193300 | 77 | 30 | 1.0 | 8.0 | 0.00 | 0.00 | 0.00 | 85 | 1014.7 |
| 20260905192800 | 77 | 341 | 3.0 | 8.0 | 0.00 | 0.00 | 0.00 | 85 | 1015.0 |
| 20260905192300 | 77 | 10 | 3.0 | 6.0 | 0.00 | 0.00 | 0.00 | 85 | 1015.0 |
| 20260905191759 | 77 | 61 | 4.0 | 6.0 | 0.00 | 0.00 | 0.00 | 85 | 1015.0 |
| 20260905191300 | 77 | 11 | 3.0 | 6.0 | 0.00 | 0.00 | 0.00 | 85 | 1015.0 |
| 20260905190758 | 77 | 36 | 4.0 | 9.0 | 0.00 | 0.00 | 0.00 | 85 | 1015.0 |
| 20260905190259 | 77 | 22 | 4.0 | 9.0 | 0.00 | 0.00 | 0.00 | 85 | 1015.0 |
| 20260905185757 | 77 | 77 | 2.0 | 7.0 | 0.00 | 0.00 | 0.00 | 85 | 1015.0 |
| 20260905185255 | 78 | 77 | 3.0 | 8.0 | 0.00 | 0.00 | 0.00 | 85 | 1015.0 |
| 20260905184756 | 78 | 50 | 2.0 | 8.0 | 0.00 | 0.00 | 0.00 | 84 | 1015.0 |
| 20260905184514 | 78 | 349 | 5.0 | 6.0 | 0.00 | 0.00 | 0.00 | 84 | 1015.0 |
| 20260905183754 | 78 | 85 | 5.0 | 5.0 | 0.00 | 0.00 | 0.00 | 85 | 1015.0 |
| 20260905183253 | 78 | 7 | 2.0 | 10.0 | 0.00 | 0.00 | 0.00 | 85 | 1015.0 |
| 20260905182754 | 78 | 358 | 9.0 | 10.0 | 0.00 | 0.00 | 0.00 | 85 | 1015.0 |
| 20260905182254 | 78 | 354 | 3.0 | 6.0 | 0.00 | 0.00 | 0.00 | 85 | 1015.0 |
| 20260905181755 | 78 | 41 | 4.0 | 6.0 | 0.00 | 0.00 | 0.00 | 84 | 1015.0 |
| 20260905181513 | 78 | 33 | 4.0 | 8.0 | 0.00 | 0.00 | 0.00 | 84 | 1015.0 |
| 20260905180751 | 78 | 357 | 3.0 | 8.0 | 0.00 | 0.00 | 0.00 | 84 | 1015.0 |
| 20260905180307 | 79 | 4 | 2.0 | 7.0 | 0.00 | 0.00 | 0.00 | 85 | 1015.0 |
| 20260905175751 | 78 | 61 | 3.0 | 7.0 | 0.00 | 0.00 | 0.00 | 84 | 1015.0 |
| 20260905175251 | 79 | 354 | 2.0 | 7.0 | 0.00 | 0.00 | 0.00 | 83 | 1015.0 |
| 20260905174749 | 79 | 75 | 6.0 | 7.0 | 0.00 | 0.00 | 0.00 | 85 | 1014.7 |
| 20260905174518 | 78 | 98 | 2.0 | 8.0 | 0.00 | 0.00 | 0.00 | 85 | 1015.0 |
| 20260905173749 | 79 | 344 | 4.0 | 8.0 | 0.00 | 0.00 | 0.00 | 84 | 1014.7 |
| 20260905173249 | 79 | 79 | 1.0 | 5.0 | 0.00 | 0.00 | 0.00 | 84 | 1014.7 |
| 20260905172747 | 79 | 19 | 3.0 | 6.0 | 0.00 | 0.00 | 0.00 | 83 | 1014.7 |
| 20260905172246 | 80 | 65 | 2.0 | 7.0 | 0.00 | 0.00 | 0.00 | 82 | 1014.7 |
| 20260905171747 | 80 | 80 | 2.0 | 7.0 | 0.00 | 0.00 | 0.00 | 83 | 1014.7 |
| 20260905171246 | 79 | 35 | 2.0 | 7.0 | 0.00 | 0.00 | 0.00 | 84 | 1014.7 |
| 20260905170745 | 80 | 75 | 5.0 | 8.0 | 0.00 | 0.00 | 0.00 | 83 | 1014.7 |
| 20260905170246 | 80 | 187 | 0.0 | 8.0 | 0.00 | 0.00 | 0.00 | 83 | 1014.7 |
| 20260905165744 | 80 | 58 | 4.0 | 8.0 | 0.00 | 0.00 | 0.00 | 83 | 1014.7 |
| 20260905165244 | 80 | 67 | 4.0 | 8.0 | 0.00 | 0.00 | 0.00 | 83 | 1014.7 |
| 20260905165223 | 80 | 9 | 4.0 | 10.0 | 0.00 | 0.00 | 0.00 | 84 | 1015.0 |
| 20260905164508 | 80 | 45 | 3.0 | 10.0 | 0.00 | 0.00 | 0.00 | 85 | 1015.0 |
| 20260905164007 | 80 | 142 | 1.0 | 8.0 | 0.00 | 0.00 | 0.00 | 84 | 1015.0 |
| 20260905163242 | 79 | 11 | 3.0 | 6.0 | 0.00 | 0.00 | 0.00 | 87 | 1015.0 |
| 20260905162742 | 78 | 37 | 1.0 | 5.0 | 0.00 | 0.00 | 0.00 | 87 | 1014.7 |
| 20260905162240 | 78 | 88 | 5.0 | 6.0 | 0.00 | 0.00 | 0.00 | 87 | 1015.0 |
| 20260905161740 | 78 | 33 | 3.0 | 6.0 | 0.00 | 0.00 | 0.00 | 87 | 1015.0 |
| 20260905161456 | 77 | 15 | 1.0 | 5.0 | 0.00 | 0.00 | 0.00 | 88 | 1014.7 |
| 20260905160751 | 77 | 129 | 2.0 | 4.0 | 0.00 | 0.00 | 0.00 | 90 | 1015.0 |
| 20260905160253 | 76 | 56 | 3.0 | 5.0 | 0.00 | 0.00 | 0.00 | 89 | 1015.0 |
| 20260905155737 | 76 | 2 | 2.0 | 5.0 | 0.00 | 0.00 | 0.00 | 90 | 1015.0 |
| 20260905155239 | 76 | 347 | 4.0 | 6.0 | 0.00 | 0.00 | 0.00 | 90 | 1015.0 |
| 20260905155005 | 76 | 87 | 3.0 | 6.0 | 0.00 | 0.00 | 0.00 | 91 | 1015.0 |
| 20260905154237 | 76 | 62 | 3.0 | 5.0 | 0.00 | 0.00 | 0.00 | 91 | 1015.0 |
| 20260905153958 | 76 | 63 | 4.0 | 6.0 | 0.00 | 0.00 | 0.00 | 91 | 1014.7 |
| 20260905153235 | 75 | 105 | 2.0 | 7.0 | 0.00 | 0.00 | 0.00 | 91 | 1014.7 |
| 20260905152736 | 75 | 22 | 2.0 | 7.0 | 0.00 | 0.00 | 0.00 | 91 | 1014.7 |
| 20260905152456 | 76 | 359 | 3.0 | 4.0 | 0.00 | 0.00 | 0.00 | 90 | 1014.7 |
| 20260905151735 | 76 | 71 | 3.0 | 5.0 | 0.00 | 0.00 | 0.00 | 93 | 1014.3 |
| 20260905151234 | 75 | 31 | 2.0 | 9.0 | 0.00 | 0.00 | 0.00 | 92 | 1014.3 |
| 20260905150734 | 75 | 72 | 3.0 | 9.0 | 0.00 | 0.00 | 0.00 | 93 | 1014.3 |
| 20260905150502 | 74 | 81 | 2.0 | 7.0 | 0.00 | 0.00 | 0.00 | 94 | 1014.3 |
| 20260905145733 | 74 | 30 | 2.0 | 6.0 | 0.00 | 0.00 | 0.00 | 94 | 1014.3 |
| 20260905145231 | 74 | 125 | 2.0 | 6.0 | 0.00 | 0.00 | 0.00 | 95 | 1014.3 |
| 20260905144731 | 74 | 9 | 0.0 | 8.0 | 0.00 | 0.00 | 0.00 | 96 | 1014.3 |
| 20260905144230 | 73 | 70 | 6.0 | 8.0 | 0.00 | 0.00 | 0.00 | 96 | 1014.3 |
| 20260905143730 | 73 | 62 | 2.0 | 7.0 | 0.00 | 0.00 | 0.00 | 96 | 1014.3 |
| 20260905143230 | 73 | 1 | 2.0 | 7.0 | 0.00 | 0.00 | 0.00 | 97 | 1014.3 |
| 20260905142728 | 73 | 70 | 3.0 | 6.0 | 0.00 | 0.00 | 0.00 | 97 | 1014.0 |
| 20260905142229 | 73 | 79 | 3.0 | 6.0 | 0.00 | 0.00 | 0.00 | 97 | 1014.0 |
| 20260905141730 | 72 | 27 | 4.0 | 9.0 | 0.00 | 0.00 | 0.00 | 97 | 1014.3 |
| 20260905141227 | 72 | 57 | 3.0 | 9.0 | 0.00 | 0.00 | 0.00 | 97 | 1014.3 |
| 20260905140728 | 72 | 13 | 3.0 | 9.0 | 0.00 | 0.00 | 0.00 | 98 | 1014.3 |
| 20260905140225 | 72 | 75 | 6.0 | 9.0 | 0.00 | 0.00 | 0.00 | 98 | 1014.0 |
| 20260905135727 | 72 | 61 | 5.0 | 9.0 | 0.00 | 0.00 | 0.00 | 98 | 1014.0 |
| 20260905135226 | 72 | 104 | 3.0 | 9.0 | 0.00 | 0.00 | 0.00 | 98 | 1014.0 |
| 20260905134725 | 72 | 16 | 1.0 | 9.0 | 0.00 | 0.00 | 0.00 | 98 | 1014.3 |
| 20260905134225 | 72 | 84 | 4.0 | 6.0 | 0.00 | 0.00 | 0.00 | 98 | 1014.0 |
| 20260905133725 | 72 | 59 | 4.0 | 10.0 | 0.00 | 0.00 | 0.00 | 98 | 1014.0 |
| 20260905133224 | 72 | 84 | 4.0 | 10.0 | 0.00 | 0.00 | 0.00 | 98 | 1014.0 |
| 20260905132735 | 72 | 343 | 5.0 | 6.0 | 0.00 | 0.00 | 0.00 | 98 | 1014.3 |
| 20260905132224 | 73 | 65 | 3.0 | 6.0 | 0.00 | 0.00 | 0.00 | 98 | 1014.0 |
| 20260905131722 | 73 | 78 | 3.0 | 6.0 | 0.00 | 0.00 | 0.00 | 98 | 1014.3 |
| 20260905131220 | 73 | 78 | 3.0 | 5.0 | 0.00 | 0.00 | 0.00 | 98 | 1014.3 |
| 20260905130723 | 73 | 56 | 2.0 | 4.0 | 0.00 | 0.00 | 0.00 | 98 | 1014.3 |
| 20260905130221 | 73 | 64 | 2.0 | 4.0 | 0.00 | 0.00 | 0.00 | 98 | 1014.3 |
| 20260905125719 | 73 | 54 | 3.0 | 4.0 | 0.00 | 0.00 | 0.00 | 98 | 1014.0 |
| 20260905125220 | 73 | 65 | 2.0 | 6.0 | 0.00 | 0.00 | 0.00 | 98 | 1013.7 |
| 20260905124718 | 73 | 58 | 2.0 | 4.0 | 0.00 | 0.00 | 0.00 | 98 | 1013.7 |
| 20260905124220 | 73 | 22 | 1.0 | 4.0 | 0.00 | 0.00 | 0.00 | 98 | 1013.3 |
| 20260905123937 | 73 | 63 | 2.0 | 4.0 | 0.00 | 0.00 | 0.00 | 98 | 1013.7 |
| 20260905123218 | 73 | 111 | 2.0 | 4.0 | 0.00 | 0.00 | 0.00 | 98 | 1013.3 |
| 20260905122718 | 73 | 40 | 2.0 | 4.0 | 0.00 | 0.00 | 0.00 | 98 | 1013.3 |
| 20260905122217 | 73 | 38 | 0.0 | 2.0 | 0.00 | 0.00 | 0.00 | 98 | 1012.9 |
| 20260905121717 | 73 | 80 | 2.0 | 2.0 | 0.00 | 0.00 | 0.00 | 98 | 1012.9 |
| 20260905121214 | 73 | 124 | 1.0 | 4.0 | 0.00 | 0.00 | 0.00 | 98 | 1013.3 |
| 20260905120715 | 73 | 89 | 0.0 | 4.0 | 0.00 | 0.00 | 0.00 | 98 | 1012.9 |
| 20260905120448 | 73 | 96 | 2.0 | 3.0 | 0.00 | 0.00 | 0.00 | 98 | 1012.9 |
| 20260905115930 | 73 | 97 | 1.0 | 3.0 | 0.00 | 0.00 | 0.00 | 98 | 1012.9 |
| 20260905115215 | 73 | 343 | 0.0 | 3.0 | 0.00 | 0.00 | 0.00 | 98 | 1012.9 |
| 20260905114714 | 73 | 89 | 0.0 | 4.0 | 0.00 | 0.00 | 0.00 | 98 | 1012.9 |
| 20260905114212 | 73 | 25 | 0.0 | 4.0 | 0.00 | 0.00 | 0.00 | 98 | 1012.9 |
| 20260905113713 | 73 | 57 | 1.0 | 3.0 | 0.00 | 0.00 | 0.00 | 98 | 1012.5 |
| 20260905113212 | 73 | 50 | 0.0 | 3.0 | 0.00 | 0.00 | 0.00 | 98 | 1012.5 |
| 20260905112713 | 73 | 32 | 0.0 | 3.0 | 0.00 | 0.00 | 0.00 | 98 | 1012.5 |
| 20260905112436 | 73 | 67 | 2.0 | 3.0 | 0.00 | 0.00 | 0.00 | 98 | 1012.5 |
| 20260905111710 | 73 | 36 | 2.0 | 2.0 | 0.00 | 0.00 | 0.00 | 98 | 1012.5 |
| 20260905111209 | 73 | 21 | 1.0 | 2.0 | 0.00 | 0.00 | 0.00 | 98 | 1012.5 |
| 20260905110709 | 74 | 293 | 0.0 | 2.0 | 0.00 | 0.00 | 0.00 | 98 | 1012.2 |
| 20260905110208 | 74 | 32 | 0.0 | 2.0 | 0.00 | 0.00 | 0.00 | 98 | 1012.2 |
| 20260905105708 | 74 | 25 | 0.0 | 2.0 | 0.00 | 0.00 | 0.00 | 98 | 1012.2 |
| 20260905105427 | 74 | 29 | 0.0 | 4.0 | 0.00 | 0.00 | 0.00 | 98 | 1012.2 |
| 20260905105157 | 74 | 117 | 0.0 | 4.0 | 0.00 | 0.00 | 0.00 | 98 | 1012.2 |
| 20260905104206 | 74 | 23 | 0.0 | 3.0 | 0.00 | 0.00 | 0.00 | 98 | 1012.2 |
| 20260905103706 | 74 | 28 | 3.0 | 3.0 | 0.00 | 0.00 | 0.00 | 98 | 1012.2 |
| 20260905103205 | 74 | 349 | 2.0 | 2.0 | 0.00 | 0.00 | 0.00 | 98 | 1011.9 |
| 20260905102704 | 75 | 50 | 0.0 | 2.0 | 0.00 | 0.00 | 0.00 | 98 | 1012.2 |
| 20260905102648 | 75 | 341 | 0.0 | 2.0 | 0.00 | 0.00 | 0.00 | 98 | 1012.2 |
| 20260905101703 | 75 | 322 | 0.0 | 2.0 | 0.00 | 0.00 | 0.00 | 98 | 1012.2 |
| 20260905101203 | 75 | 322 | 0.0 | 2.0 | 0.00 | 0.00 | 0.00 | 98 | 1012.2 |
| 20260905100702 | 75 | 321 | 0.0 | 2.0 | 0.00 | 0.00 | 0.00 | 98 | 1012.2 |
| 20260905100645 | 75 | 17 | 0.0 | 2.0 | 0.00 | 0.00 | 0.00 | 98 | 1012.2 |
| 20260905095701 | 75 | 322 | 0.0 | 1.0 | 0.00 | 0.00 | 0.00 | 98 | 1012.5 |
| 20260905095201 | 75 | 242 | 0.0 | 1.0 | 0.00 | 0.00 | 0.00 | 98 | 1012.2 |
| 20260905094700 | 75 | 255 | 0.0 | 1.0 | 0.00 | 0.00 | 0.00 | 98 | 1012.2 |
| 20260905094159 | 75 | 322 | 0.0 | 0.0 | 0.00 | 0.00 | 0.00 | 98 | 1012.2 |
| 20260905093701 | 75 | 322 | 0.0 | 1.0 | 0.00 | 0.00 | 0.00 | 98 | 1011.9 |
| 20260905093159 | 75 | 314 | 0.0 | 1.0 | 0.00 | 0.00 | 0.00 | 98 | 1012.2 |
| 20260905092659 | 75 | 297 | 0.0 | 1.0 | 0.00 | 0.00 | 0.00 | 98 | 1012.2 |
| 20260905092157 | 75 | 0 | 1.0 | 2.0 | 0.00 | 0.00 | 0.00 | 98 | 1011.9 |
| 20260905091658 | 75 | 240 | 0.0 | 2.0 | 0.00 | 0.00 | 0.00 | 98 | 1011.9 |
| 20260905091424 | 75 | 226 | 1.0 | 2.0 | 0.00 | 0.00 | 0.00 | 98 | 1012.2 |
| 20260905090656 | 75 | 240 | 1.0 | 1.0 | 0.00 | 0.00 | 0.00 | 98 | 1012.2 |
| 20260905090156 | 75 | 301 | 0.0 | 2.0 | 0.00 | 0.00 | 0.00 | 98 | 1012.2 |
| 20260905085656 | 75 | 230 | 0.0 | 2.0 | 0.00 | 0.00 | 0.00 | 98 | 1012.2 |
| 20260905085154 | 75 | 287 | 2.0 | 2.0 | 0.00 | 0.00 | 0.00 | 98 | 1012.2 |
| 20260905084655 | 75 | 235 | 0.0 | 2.0 | 0.00 | 0.00 | 0.00 | 98 | 1011.9 |
| 20260905084633 | 75 | 239 | 0.0 | 2.0 | 0.00 | 0.00 | 0.00 | 98 | 1012.2 |
| 20260905083915 | 75 | 269 | 0.0 | 1.0 | 0.00 | 0.00 | 0.00 | 98 | 1011.9 |
| 20260905083154 | 75 | 242 | 0.0 | 1.0 | 0.00 | 0.00 | 0.00 | 98 | 1012.2 |
| 20260905082652 | 75 | 235 | 1.0 | 1.0 | 0.00 | 0.00 | 0.00 | 98 | 1012.2 |
| 20260905082153 | 75 | 309 | 0.0 | 1.0 | 0.00 | 0.00 | 0.00 | 98 | 1012.2 |
| 20260905081653 | 75 | 269 | 0.0 | 2.0 | 0.00 | 0.00 | 0.00 | 97 | 1012.2 |
| 20260905081151 | 75 | 239 | 1.0 | 2.0 | 0.00 | 0.00 | 0.00 | 97 | 1012.2 |
| 20260905080650 | 75 | 238 | 0.0 | 1.0 | 0.00 | 0.00 | 0.00 | 97 | 1011.9 |
| 20260905080149 | 75 | 255 | 0.0 | 2.0 | 0.00 | 0.00 | 0.00 | 97 | 1012.2 |
| 20260905075650 | 75 | 304 | 0.0 | 2.0 | 0.00 | 0.00 | 0.00 | 97 | 1012.2 |
| 20260905075150 | 75 | 309 | 0.0 | 1.0 | 0.00 | 0.00 | 0.00 | 97 | 1011.9 |
| 20260905074909 | 75 | 309 | 0.0 | 1.0 | 0.00 | 0.00 | 0.00 | 97 | 1012.2 |
| 20260905074150 | 75 | 309 | 0.0 | 1.0 | 0.00 | 0.00 | 0.00 | 97 | 1012.2 |
| 20260905073905 | 75 | 242 | 0.0 | 1.0 | 0.00 | 0.00 | 0.00 | 97 | 1012.2 |
| 20260905073146 | 75 | 269 | 0.0 | 1.0 | 0.00 | 0.00 | 0.00 | 97 | 1012.2 |
| 20260905072906 | 75 | 322 | 0.0 | 2.0 | 0.00 | 0.00 | 0.00 | 97 | 1012.2 |
| 20260905072145 | 75 | 237 | 0.0 | 2.0 | 0.00 | 0.00 | 0.00 | 97 | 1012.2 |
| 20260905071648 | 75 | 258 | 0.0 | 2.0 | 0.00 | 0.00 | 0.00 | 97 | 1012.2 |
| 20260905071158 | 75 | 283 | 0.0 | 2.0 | 0.00 | 0.00 | 0.00 | 96 | 1012.5 |
| 20260905070644 | 76 | 259 | 1.0 | 2.0 | 0.00 | 0.00 | 0.00 | 96 | 1012.2 |
| 20260905070143 | 76 | 235 | 1.0 | 1.0 | 0.00 | 0.00 | 0.00 | 96 | 1012.2 |
| 20260905065644 | 76 | 242 | 0.0 | 1.0 | 0.00 | 0.00 | 0.00 | 96 | 1012.5 |
| 20260905065402 | 76 | 205 | 1.0 | 2.0 | 0.00 | 0.00 | 0.00 | 96 | 1012.5 |
| 20260905064643 | 76 | 224 | 0.0 | 2.0 | 0.00 | 0.00 | 0.00 | 96 | 1012.5 |
| 20260905064411 | 76 | 242 | 1.0 | 2.0 | 0.00 | 0.00 | 0.00 | 96 | 1012.5 |
| 20260905063640 | 76 | 345 | 0.0 | 2.0 | 0.00 | 0.00 | 0.00 | 96 | 1012.2 |
| 20260905063406 | 76 | 22 | 0.0 | 2.0 | 0.00 | 0.00 | 0.00 | 96 | 1012.5 |
| 20260905062855 | 76 | 9 | 2.0 | 2.0 | 0.00 | 0.00 | 0.00 | 96 | 1012.5 |
| 20260905062139 | 76 | 315 | 0.0 | 2.0 | 0.00 | 0.00 | 0.00 | 96 | 1012.5 |
| 20260905061640 | 76 | 242 | 0.0 | 2.0 | 0.00 | 0.00 | 0.00 | 96 | 1012.5 |
| 20260905061138 | 76 | 6 | 0.0 | 2.0 | 0.00 | 0.00 | 0.00 | 96 | 1012.5 |
| 20260905060637 | 76 | 235 | 0.0 | 2.0 | 0.00 | 0.00 | 0.00 | 96 | 1012.5 |
| 20260905060359 | 76 | 183 | 2.0 | 2.0 | 0.00 | 0.00 | 0.00 | 96 | 1012.5 |
| 20260905055637 | 76 | 346 | 1.0 | 2.0 | 0.00 | 0.00 | 0.00 | 95 | 1012.5 |
| 20260905055135 | 77 | 205 | 0.0 | 2.0 | 0.00 | 0.00 | 0.00 | 95 | 1012.5 |
| 20260905054636 | 77 | 6 | 0.0 | 1.0 | 0.00 | 0.00 | 0.00 | 95 | 1012.5 |
| 20260905054136 | 77 | 32 | 0.0 | 1.0 | 0.00 | 0.00 | 0.00 | 95 | 1012.5 |
| 20260905053635 | 77 | 0 | 0.0 | 1.0 | 0.00 | 0.00 | 0.00 | 95 | 1012.5 |
| 20260905053401 | 77 | 29 | 0.0 | 1.0 | 0.00 | 0.00 | 0.00 | 94 | 1012.5 |
| 20260905052635 | 77 | 343 | 0.0 | 1.0 | 0.00 | 0.00 | 0.00 | 94 | 1012.5 |
| 20260905052136 | 78 | 322 | 0.0 | 1.0 | 0.00 | 0.00 | 0.00 | 93 | 1012.5 |
| 20260905051900 | 78 | 250 | 0.0 | 1.0 | 0.00 | 0.00 | 0.00 | 93 | 1012.2 |
| 20260905051133 | 78 | 297 | 0.0 | 0.0 | 0.00 | 0.00 | 0.00 | 93 | 1012.2 |
| 20260905050631 | 78 | 309 | 0.0 | 1.0 | 0.00 | 0.00 | 0.00 | 93 | 1012.5 |
| 20260905050131 | 78 | 305 | 0.0 | 1.0 | 0.00 | 0.00 | 0.00 | 92 | 1012.5 |
| 20260905045632 | 79 | 301 | 0.0 | 1.0 | 0.00 | 0.00 | 0.00 | 91 | 1012.5 |
| 20260905045132 | 79 | 310 | 0.0 | 1.0 | 0.00 | 0.00 | 0.00 | 91 | 1012.2 |
| 20260905044629 | 79 | 260 | 0.0 | 2.0 | 0.00 | 0.00 | 0.00 | 91 | 1012.5 |
| 20260905044351 | 79 | 287 | 0.0 | 2.0 | 0.00 | 0.00 | 0.00 | 90 | 1012.5 |
| 20260905043628 | 79 | 242 | 0.0 | 1.0 | 0.00 | 0.00 | 0.00 | 90 | 1012.5 |
| 20260905043128 | 80 | 336 | 0.0 | 2.0 | 0.00 | 0.00 | 0.00 | 90 | 1012.5 |
| 20260905042627 | 80 | 293 | 0.0 | 2.0 | 0.00 | 0.00 | 0.00 | 89 | 1012.2 |